Location: Unspecified
(48.8656°N, 0.0000°E)
Time: 10:08:15
(UTC+00:00)

Vanguard 3 - Pass Details

Date: 19 June 2019
Orbit: 508 x 3263 km, 33.3° (Epoch: 24 August)

Event Time Altitude Azimuth Distance (km) Brightness Sun altitude
Rises 13:35:58 0° 238° (WSW) 4,984 11.6 58.5°
Reaches altitude 10° 13:40:52 10° 224° (SW) 3,431 11.1 57.9°
Maximum altitude 13:46:14 19° 183° (S) 2,203 10.0 57.2°
Drops below altitude 10° 13:50:09 10° 138° (SE) 2,379 9.7 56.7°
Sets 13:52:47 0° 119° (ESE) 3,042 10.0 56.4°
